Location: Altleiningen
(49.5078°N, 8.0741°E)
Time: 04:33:21
(UTC+00:00)

Meteor 1-15 Rocket - Pass Details

Date: 14 June 2025
Orbit: 838 x 906 km, 81.2° (Epoch: 12 July)

Event Time Altitude Azimuth Distance (km) Brightness Sun altitude
Rises 20:39:36 0° 349° (N) 3,446 8.6 -8.1°
Reaches altitude 10° 20:42:05 10° 353° (N) 2,496 7.7 -8.4°
Maximum altitude 20:47:42 65° 75° (ENE) 930 4.4 -8.9°
Enters shadow 20:53:00 11° 157° (SSE) 2,370 5.9 -9.4°
